Moline, IL

1:38 AM CDT on September 26, 2017 (GMT -0500)
Quad-City International

Weather History for KMLI - March, 2013

Change the Weather History Date:

Monday, March 25, 2013

  Actual Average Record
Temperature  
Mean Temperature 34 °F 43 °F  
Max Temperature 37 °F 53 °F 81 °F (1907)
Min Temperature 30 °F 33 °F 1 °F (1960)
Degree Days  
Heating Degree Days 31 22  
Month to date heating degree days 885 681  
Since 1 July heating degree days 5518 5479  
Cooling Degree Days 0 0  
Month to date cooling degree days 0 0  
Year to date cooling degree days 0 0  
Moisture  
Dew Point 24 °F    
Average Humidity 72    
Maximum Humidity 85    
Minimum Humidity 59    
Precipitation  
Precipitation T in 0.09 in 1.92 in (1945)
Month to date precipitation 2.57 2.27  
Year to date precipitation 7.97 5.36  
Snow  
Snow T in 0.10 in - ()
Month to date snowfall 10.6 3.5  
Since 1 July snowfall 34.5 30.2  
Snow Depth 2.00 in    
Sea Level Pressure  
Sea Level Pressure 29.96 in    
Wind  
Wind Speed 12 mph (NNW)    
Max Wind Speed 18 mph    
Max Gust Speed 24 mph    
Visibility 9 miles    
Events Snow    
T = Trace of Precipitation, MM = Missing Value Source: NWS Daily Summary

Daily Weather History Graph

Daily Weather History Graph

Search for Another Location

Airport or City:

Trip Planner

Search our weather history database for the weather conditions in past years. The results will help you decide how hot, cold, wet, or windy it might be!

Date:

Astronomy

Mar. 25, 2013 Rise Set
Actual Time 6:56 AM CDT 7:19 PM CDT
Civil Twilight 6:28 AM CDT 7:47 PM CDT
Nautical Twilight 5:56 AM CDT 8:20 PM CDT
Astronomical Twilight 5:22 AM CDT 8:53 PM CDT
Moon 5:51 PM CDT (3/25) 5:40 AM CDT (3/25)
Length of Visible Light 13h 18m
Length of Day
12h 23m
Waxing Gibbous, 96% of the Moon is Illuminated
Mar 25
Waxing Gibbous
Mar 27
Full
Apr 2
Last Quarter
Apr 10
New
Apr 18
First Quarter

Hourly Weather History & Observations

Time (CDT) Temp. Windchill Dew Point Humidity Pressure Visibility Wind Dir Wind Speed Gust Speed Precip Events Conditions
12:01 AM 30.2 °F 21.3 °F 26.6 °F 86% 29.83 in 2.5 mi North 10.4 mph - 0.00 in Snow Light Snow
12:03 AM 30.2 °F 21.9 °F 26.6 °F 86% 29.83 in 3.0 mi North 9.2 mph - 0.00 in Snow Light Snow
12:16 AM 30.2 °F 21.3 °F 26.6 °F 86% 29.83 in 5.0 mi North 10.4 mph - 0.00 in   Overcast
12:27 AM 30.2 °F 21.3 °F 26.6 °F 86% 29.83 in 6.0 mi North 10.4 mph - 0.00 in   Overcast
12:37 AM 30.2 °F 22.6 °F 26.6 °F 86% 29.83 in 3.0 mi North 8.1 mph - 0.00 in Snow Light Snow
12:52 AM 30.0 °F 21.1 °F 27.0 °F 88% 29.85 in 3.0 mi NNW 10.4 mph - 0.00 in Snow Light Snow
1:52 AM 30.0 °F 20.5 °F 26.1 °F 85% 29.86 in 10.0 mi NNW 11.5 mph - 0.00 in   Overcast
2:52 AM 30.0 °F 21.1 °F 25.0 °F 82% 29.86 in 10.0 mi NNW 10.4 mph - N/A   Overcast
3:52 AM 30.0 °F 21.1 °F 24.1 °F 79% 29.85 in 10.0 mi NNW 10.4 mph - N/A   Overcast
4:52 AM 30.0 °F 21.7 °F 23.0 °F 75% 29.86 in 10.0 mi NNW 9.2 mph - N/A   Overcast
5:52 AM 30.0 °F 21.7 °F 23.0 °F 75% 29.86 in 10.0 mi NNW 9.2 mph - N/A   Overcast
6:52 AM 30.0 °F 22.4 °F 21.0 °F 69% 29.89 in 10.0 mi North 8.1 mph - N/A   Overcast
7:52 AM 30.0 °F 21.7 °F 19.9 °F 66% 29.91 in 10.0 mi NNW 9.2 mph 17.3 mph N/A   Overcast
8:52 AM 30.9 °F 21.7 °F 19.9 °F 64% 29.94 in 10.0 mi NNW 11.5 mph - N/A   Overcast
9:52 AM 30.9 °F 19.8 °F 19.9 °F 64% 29.95 in 10.0 mi NNW 16.1 mph 21.9 mph N/A   Overcast
10:52 AM 30.9 °F 21.2 °F 21.9 °F 69% 29.98 in 10.0 mi NNW 12.7 mph 20.7 mph N/A   Overcast
11:52 AM 33.1 °F 22.2 °F 21.9 °F 64% 29.99 in 10.0 mi NNW 17.3 mph 21.9 mph N/A   Overcast
12:52 PM 33.1 °F 22.6 °F 23.0 °F 66% 30.00 in 10.0 mi NNW 16.1 mph - N/A   Overcast
1:52 PM 35.1 °F 25.9 °F 24.1 °F 64% 30.00 in 10.0 mi NNW 13.8 mph - N/A   Overcast
2:52 PM 37.0 °F 29.3 °F 26.1 °F 65% 30.01 in 10.0 mi NNW 11.5 mph - N/A   Partly Cloudy
3:52 PM 37.0 °F 28.5 °F 26.1 °F 65% 30.03 in 10.0 mi NNW 13.8 mph - N/A   Mostly Cloudy
4:52 PM 37.0 °F 28.5 °F 24.1 °F 59% 30.04 in 10.0 mi NNW 13.8 mph - N/A   Mostly Cloudy
5:52 PM 35.1 °F 26.4 °F 23.0 °F 61% 30.07 in 10.0 mi North 12.7 mph - N/A   Overcast
6:52 PM 35.1 °F 26.9 °F 23.0 °F 61% 30.10 in 10.0 mi NNW 11.5 mph - N/A   Overcast
7:52 PM 34.0 °F 25.5 °F 23.0 °F 64% 30.13 in 10.0 mi NNW 11.5 mph - N/A   Overcast
8:52 PM 34.0 °F 28.0 °F 21.9 °F 61% 30.14 in 10.0 mi NNW 6.9 mph - N/A   Overcast
9:52 PM 34.0 °F 27.2 °F 23.0 °F 64% 30.16 in 10.0 mi NW 8.1 mph - N/A   Overcast
10:52 PM 34.0 °F 27.2 °F 23.0 °F 64% 30.16 in 10.0 mi NW 8.1 mph - N/A   Overcast
11:52 PM 33.1 °F 24.4 °F 23.0 °F 66% 30.17 in 10.0 mi NW 11.5 mph - N/A   Overcast